Location: Nairn
(57.5833°N, 3.8667°W)
Time: 02:05:40
(UTC+00:00)

UNK - Pass Details

Date: 11 December 2021
Orbit: 666 x 686 km, 98.2° (Epoch: 22 January)

Event Time Altitude Azimuth Distance (km) Brightness Sun altitude
Exits shadow 17:27:35 - 9° (N) 2,949 6.7 -14.0°
Reaches altitude 10° 17:30:21 10° 349° (N) 2,112 6.2 -14.4°
Maximum altitude 17:33:04 16° 313° (NW) 1,749 6.2 -14.7°
Drops below altitude 10° 17:35:47 10° 277° (W) 2,101 7.3 -15.0°
Sets 17:38:46 0° 255° (WSW) 3,009 9.0 -15.4°
